CTV885 WIMN-WIII

Flight info

Callsign CTV885
Flight time 1h 54m
Altitude 37000
Route OMBES T5 BUNIK
Aircraft A320/M-SDE2E3FGHIRWY/LB1

Departure

Time 2026-05-07 05:08
Airport Silangit Airport (WIMN)

Arrival

Time 2026-05-07 07:03
Airport Soekarno-Hatta International Airport (WIII)
Time Latitude Longitude Altitude Speed Heading
2026-05-07 04:41 2.26160 98.98728 4668 ft 0 kts
2026-05-07 05:01 2.26143 98.98726 4666 ft 4 kts 22°
2026-05-07 05:01 2.26125 98.98711 4668 ft 4 kts 74°
2026-05-07 05:01 2.26123 98.98696 4668 ft 1 kts 93°
2026-05-07 05:01 2.26123 98.98693 4668 ft 0 kts 93°
2026-05-07 05:03 2.26122 98.98706 4668 ft 6 kts 93°
2026-05-07 05:04 2.26118 98.98764 4668 ft 8 kts 96°
2026-05-07 05:04 2.26091 98.98791 4668 ft 6 kts 167°
2026-05-07 05:04 2.26035 98.98796 4669 ft 10 kts 179°
2026-05-07 05:04 2.25967 98.98807 4670 ft 11 kts 131°
2026-05-07 05:05 2.25956 98.98900 4669 ft 16 kts 92°
2026-05-07 05:05 2.25950 98.99025 4668 ft 20 kts 92°
2026-05-07 05:05 2.25944 98.99169 4667 ft 21 kts 93°
2026-05-07 05:05 2.25936 98.99317 4667 ft 22 kts 93°
2026-05-07 05:06 2.25931 98.99432 4666 ft 16 kts 92°
2026-05-07 05:06 2.25926 98.99546 4666 ft 17 kts 92°
2026-05-07 05:06 2.25920 98.99663 4666 ft 17 kts 91°
2026-05-07 05:06 2.25943 98.99760 4667 ft 12 kts 71°
2026-05-07 05:07 2.25920 98.99778 4665 ft 4 kts 242°
2026-05-07 05:07 2.25918 98.99750 4663 ft 3 kts 270°
2026-05-07 05:07 2.25919 98.99725 4666 ft 8 kts 272°
2026-05-07 05:07 2.25929 98.99478 4666 ft 72 kts 272°
2026-05-07 05:08 2.25962 98.98746 4667 ft 136 kts 273°
2026-05-07 05:08 2.26006 98.97630 4810 ft 174 kts 271°
2026-05-07 05:08 2.26069 98.96431 5550 ft 172 kts 271°
2026-05-07 05:08 2.26123 98.95223 6020 ft 179 kts 270°
2026-05-07 05:09 2.26178 98.93932 6160 ft 199 kts 271°
2026-05-07 05:09 2.26241 98.92481 6294 ft 219 kts 272°
2026-05-07 05:09 2.26312 98.90884 6426 ft 242 kts 272°
2026-05-07 05:09 2.26390 98.89122 6648 ft 265 kts 272°
2026-05-07 05:10 2.26464 98.87211 6998 ft 282 kts 269°
2026-05-07 05:10 2.26001 98.85316 7611 ft 286 kts 238°
2026-05-07 05:10 2.24577 98.83948 8266 ft 288 kts 205°
2026-05-07 05:10 2.22638 98.83505 8917 ft 290 kts 180°
2026-05-07 05:11 2.20621 98.83641 9585 ft 292 kts 172°
2026-05-07 05:11 2.18593 98.83913 10235 ft 296 kts 171°
2026-05-07 05:11 2.16510 98.84196 10550 ft 313 kts 171°
2026-05-07 05:11 2.14273 98.84467 10683 ft 335 kts 175°
2026-05-07 05:12 2.11881 98.84525 10922 ft 351 kts 180°
2026-05-07 05:12 2.09418 98.84417 11440 ft 357 kts 182°
2026-05-07 05:12 2.06925 98.84370 12003 ft 360 kts 172°
2026-05-07 05:12 2.04538 98.85074 12555 ft 360 kts 150°
2026-05-07 05:13 2.02610 98.86656 13052 ft 363 kts 128°
2026-05-07 05:13 2.01183 98.88753 13536 ft 367 kts 122°
2026-05-07 05:13 1.99787 98.90907 14054 ft 371 kts 122°
2026-05-07 05:13 1.98378 98.93081 14582 ft 374 kts 122°
2026-05-07 05:14 1.96954 98.95284 14780 ft 381 kts 121°
2026-05-07 05:14 1.95513 98.97519 15117 ft 382 kts 121°
2026-05-07 05:14 1.94076 98.99751 15559 ft 381 kts 121°
2026-05-07 05:14 1.92637 99.01980 15936 ft 382 kts 121°
2026-05-07 05:15 1.91191 99.04214 16277 ft 384 kts 121°
2026-05-07 05:15 1.89737 99.06455 16602 ft 385 kts 121°
2026-05-07 05:15 1.88277 99.08705 16914 ft 386 kts 121°
2026-05-07 05:15 1.86811 99.10964 17214 ft 388 kts 121°
2026-05-07 05:16 1.85340 99.13233 17545 ft 390 kts 121°
2026-05-07 05:16 1.83862 99.15515 17863 ft 392 kts 121°
2026-05-07 05:16 1.82378 99.17808 18178 ft 394 kts 121°
2026-05-07 05:16 1.80888 99.20104 18496 ft 395 kts 121°
2026-05-07 05:17 1.79391 99.22416 18779 ft 397 kts 121°
2026-05-07 05:17 1.77887 99.24740 19062 ft 399 kts 121°
2026-05-07 05:17 1.76372 99.27078 19355 ft 401 kts 121°
2026-05-07 05:17 1.74873 99.29388 19646 ft 403 kts 121°
2026-05-07 05:18 1.73328 99.31767 19935 ft 404 kts 121°
2026-05-07 05:18 1.71816 99.34100 20203 ft 406 kts 121°
2026-05-07 05:18 1.70283 99.36469 20479 ft 407 kts 121°
2026-05-07 05:18 1.68741 99.38848 20763 ft 409 kts 121°
2026-05-07 05:19 1.67192 99.41235 21045 ft 411 kts 121°
2026-05-07 05:19 1.66140 99.42859 21232 ft 412 kts 121°
2026-05-07 05:19 1.64074 99.46049 21587 ft 414 kts 121°
2026-05-07 05:19 1.62504 99.48469 21850 ft 415 kts 121°
2026-05-07 05:20 1.60932 99.50894 22108 ft 416 kts 121°
2026-05-07 05:20 1.59357 99.53328 22368 ft 418 kts 121°
2026-05-07 05:20 1.57778 99.55772 22626 ft 419 kts 121°
2026-05-07 05:20 1.56190 99.58225 22882 ft 421 kts 121°
2026-05-07 05:21 1.54598 99.60685 23132 ft 422 kts 121°
2026-05-07 05:21 1.51396 99.65631 23629 ft 425 kts 121°
2026-05-07 05:21 1.49783 99.68114 23871 ft 427 kts 121°
2026-05-07 05:22 1.48165 99.70603 24128 ft 428 kts 121°
2026-05-07 05:22 1.46544 99.73101 24372 ft 429 kts 121°
2026-05-07 05:22 1.44919 99.75609 24614 ft 431 kts 121°
2026-05-07 05:22 1.43286 99.78126 24840 ft 432 kts 121°
2026-05-07 05:23 1.41647 99.80652 25077 ft 434 kts 122°
2026-05-07 05:23 1.40003 99.83187 25301 ft 436 kts 122°
2026-05-07 05:23 1.38351 99.85731 25530 ft 437 kts 122°
2026-05-07 05:23 1.36694 99.88282 25763 ft 438 kts 122°
2026-05-07 05:24 1.35030 99.90842 25987 ft 440 kts 122°
2026-05-07 05:24 1.33364 99.93411 26207 ft 441 kts 122°
2026-05-07 05:24 1.31693 99.95993 26411 ft 443 kts 122°
2026-05-07 05:24 1.30019 99.98582 26645 ft 444 kts 122°
2026-05-07 05:25 1.28337 100.01178 26883 ft 446 kts 122°
2026-05-07 05:25 1.26648 100.03781 27089 ft 447 kts 122°
2026-05-07 05:25 1.24954 100.06393 27312 ft 449 kts 122°
2026-05-07 05:25 1.23256 100.09014 27522 ft 450 kts 122°
2026-05-07 05:26 1.21547 100.11642 27736 ft 452 kts 122°
2026-05-07 05:26 1.19835 100.14277 27964 ft 453 kts 122°
2026-05-07 05:26 1.18120 100.16922 28178 ft 454 kts 122°
2026-05-07 05:26 1.16401 100.19575 28380 ft 456 kts 122°
2026-05-07 05:27 1.14676 100.22235 28586 ft 457 kts 122°
2026-05-07 05:27 1.12944 100.24901 28775 ft 458 kts 123°
2026-05-07 05:27 1.11229 100.27535 28973 ft 459 kts 123°
2026-05-07 05:27 1.09486 100.30214 29160 ft 460 kts 123°
2026-05-07 05:28 1.07741 100.32903 29348 ft 462 kts 123°
2026-05-07 05:28 1.05993 100.35602 29514 ft 463 kts 123°
2026-05-07 05:28 1.04238 100.38310 29699 ft 465 kts 123°
2026-05-07 05:28 1.02477 100.41025 29873 ft 466 kts 123°
2026-05-07 05:29 1.00712 100.43748 30061 ft 467 kts 123°
2026-05-07 05:29 0.98946 100.46472 30319 ft 467 kts 123°
2026-05-07 05:29 0.97185 100.49191 30582 ft 466 kts 123°
2026-05-07 05:29 0.96019 100.50990 30756 ft 465 kts 123°
2026-05-07 05:30 0.94259 100.53701 30987 ft 465 kts 123°
2026-05-07 05:30 0.92498 100.56410 31216 ft 465 kts 123°
2026-05-07 05:30 0.90142 100.60029 31538 ft 464 kts 123°
2026-05-07 05:31 0.88975 100.61821 31701 ft 464 kts 123°
2026-05-07 05:31 0.86627 100.65434 32036 ft 463 kts 123°
2026-05-07 05:31 0.83717 100.69926 32415 ft 463 kts 123°
2026-05-07 05:31 0.81376 100.73534 32714 ft 462 kts 123°
2026-05-07 05:32 0.79627 100.76229 32964 ft 462 kts 123°
2026-05-07 05:32 0.77880 100.78920 33207 ft 461 kts 123°
2026-05-07 05:32 0.76133 100.81608 33449 ft 461 kts 123°
2026-05-07 05:32 0.74390 100.84295 33667 ft 461 kts 123°
2026-05-07 05:33 0.72649 100.86982 33905 ft 460 kts 123°
2026-05-07 05:33 0.70912 100.89667 34144 ft 460 kts 123°
2026-05-07 05:33 0.69176 100.92350 34375 ft 459 kts 123°
2026-05-07 05:33 0.67444 100.95019 34615 ft 458 kts 123°
2026-05-07 05:34 0.65732 100.97653 34846 ft 457 kts 123°
2026-05-07 05:34 0.64002 101.00314 35062 ft 456 kts 123°
2026-05-07 05:34 0.62274 101.02969 35270 ft 456 kts 123°
2026-05-07 05:34 0.60546 101.05623 35434 ft 456 kts 123°
2026-05-07 05:35 0.58819 101.08278 35607 ft 455 kts 123°
2026-05-07 05:35 0.57096 101.10932 35786 ft 455 kts 123°
2026-05-07 05:35 0.55374 101.13584 35957 ft 455 kts 123°
2026-05-07 05:35 0.53652 101.16234 36115 ft 454 kts 123°
2026-05-07 05:36 0.51936 101.18877 36285 ft 454 kts 122°
2026-05-07 05:36 0.50215 101.21528 36450 ft 454 kts 122°
2026-05-07 05:36 0.49082 101.23275 36551 ft 453 kts 122°
2026-05-07 05:37 0.46785 101.26815 36751 ft 453 kts 122°
2026-05-07 05:37 0.44515 101.30314 36843 ft 453 kts 122°
2026-05-07 05:38 0.39933 101.37378 36839 ft 452 kts 122°
2026-05-07 05:38 0.38224 101.40017 36840 ft 452 kts 122°
2026-05-07 05:39 0.31311 101.50655 36839 ft 450 kts 122°
2026-05-07 05:39 0.27926 101.55868 36843 ft 450 kts 122°
2026-05-07 05:40 0.24517 101.61115 36849 ft 450 kts 122°
2026-05-07 05:40 0.21107 101.66359 36853 ft 450 kts 122°
2026-05-07 05:41 0.17706 101.71605 36858 ft 450 kts 122°
2026-05-07 05:41 0.14307 101.76848 36863 ft 449 kts 122°
2026-05-07 05:42 0.10911 101.82083 36863 ft 448 kts 122°
2026-05-07 05:42 0.07516 101.87304 36863 ft 448 kts 122°
2026-05-07 05:43 0.04127 101.92514 36862 ft 447 kts 122°
2026-05-07 05:43 0.00751 101.97722 36865 ft 446 kts 122°
2026-05-07 05:44 -0.02620 102.02926 36864 ft 446 kts 122°
2026-05-07 05:44 -0.05997 102.08121 36859 ft 446 kts 122°
2026-05-07 05:45 -0.09356 102.13272 36850 ft 445 kts 122°
2026-05-07 05:45 -0.12724 102.18458 36846 ft 445 kts 122°
2026-05-07 05:46 -0.16076 102.23648 36844 ft 445 kts 122°
2026-05-07 05:46 -0.19441 102.28832 36843 ft 445 kts 122°
2026-05-07 05:47 -0.22816 102.34004 36841 ft 444 kts 122°
2026-05-07 05:47 -0.25614 102.38307 36834 ft 444 kts 122°
2026-05-07 05:48 -0.28980 102.43488 36840 ft 445 kts 122°
2026-05-07 05:48 -0.32890 102.49516 36841 ft 445 kts 122°
2026-05-07 05:49 -0.35711 102.53862 36838 ft 445 kts 122°
2026-05-07 05:49 -0.39087 102.59050 36840 ft 445 kts 122°
2026-05-07 05:50 -0.42459 102.64240 36839 ft 445 kts 122°
2026-05-07 05:50 -0.45798 102.69403 36840 ft 445 kts 122°
2026-05-07 05:51 -0.49158 102.74586 36839 ft 445 kts 122°
2026-05-07 05:51 -0.52530 102.79774 36840 ft 445 kts 122°
2026-05-07 05:52 -0.55908 102.84973 36841 ft 446 kts 122°
2026-05-07 05:52 -0.59279 102.90166 36845 ft 446 kts 122°
2026-05-07 05:53 -0.62656 102.95363 36848 ft 446 kts 122°
2026-05-07 05:53 -0.66032 103.00559 36842 ft 446 kts 122°
2026-05-07 05:54 -0.69409 103.05756 36844 ft 446 kts 122°
2026-05-07 05:54 -0.72783 103.10960 36843 ft 446 kts 122°
2026-05-07 05:55 -0.76163 103.16166 36848 ft 447 kts 122°
2026-05-07 05:55 -0.79543 103.21376 36847 ft 447 kts 123°
2026-05-07 05:56 -0.82925 103.26589 36850 ft 447 kts 122°
2026-05-07 05:56 -0.86309 103.31799 36845 ft 447 kts 123°
2026-05-07 05:57 -0.89953 103.36812 36843 ft 447 kts 134°
2026-05-07 05:57 -0.94679 103.40839 36844 ft 447 kts 141°
2026-05-07 05:58 -0.99522 103.44740 36843 ft 447 kts 141°
2026-05-07 05:58 -1.04324 103.48629 36842 ft 447 kts 140°
2026-05-07 05:59 -1.09156 103.52549 36831 ft 448 kts 140°
2026-05-07 05:59 -1.13995 103.56469 36838 ft 448 kts 141°
2026-05-07 06:00 -1.18839 103.60392 36838 ft 448 kts 141°
2026-05-07 06:00 -1.23689 103.64315 36841 ft 448 kts 141°
2026-05-07 06:01 -1.28538 103.68240 36842 ft 449 kts 141°
2026-05-07 06:01 -1.33384 103.72172 36843 ft 449 kts 140°
2026-05-07 06:02 -1.38238 103.76105 36849 ft 449 kts 140°
2026-05-07 06:02 -1.43099 103.80043 36846 ft 450 kts 141°
2026-05-07 06:03 -1.47961 103.83986 36850 ft 450 kts 141°
2026-05-07 06:03 -1.52831 103.87928 36851 ft 450 kts 141°
2026-05-07 06:04 -1.57700 103.91871 36855 ft 450 kts 141°
2026-05-07 06:04 -1.62569 103.95812 36856 ft 450 kts 141°
2026-05-07 06:05 -1.67435 103.99750 36858 ft 450 kts 140°
2026-05-07 06:05 -1.72257 104.03655 36860 ft 449 kts 140°
2026-05-07 06:06 -1.77105 104.07580 36859 ft 448 kts 140°
2026-05-07 06:06 -1.81948 104.11505 36859 ft 448 kts 140°
2026-05-07 06:07 -1.86783 104.15432 36857 ft 448 kts 140°
2026-05-07 06:07 -1.91613 104.19356 36856 ft 447 kts 140°
2026-05-07 06:08 -1.96449 104.23275 36856 ft 447 kts 140°
2026-05-07 06:08 -2.01291 104.27185 36855 ft 447 kts 140°
2026-05-07 06:09 -2.06133 104.31095 36854 ft 448 kts 140°
2026-05-07 06:09 -2.10963 104.35012 36854 ft 448 kts 140°
2026-05-07 06:10 -2.15799 104.38941 36850 ft 447 kts 140°
2026-05-07 06:10 -2.20625 104.42859 36846 ft 447 kts 140°
2026-05-07 06:11 -2.25467 104.46779 36848 ft 447 kts 140°
2026-05-07 06:11 -2.30298 104.50689 36847 ft 447 kts 140°
2026-05-07 06:12 -2.35127 104.54613 36851 ft 447 kts 140°
2026-05-07 06:12 -2.39963 104.58535 36848 ft 448 kts 140°
2026-05-07 06:13 -2.44781 104.62432 36845 ft 448 kts 140°
2026-05-07 06:13 -2.49656 104.66379 36848 ft 448 kts 140°
2026-05-07 06:14 -2.54459 104.70281 36848 ft 448 kts 140°
2026-05-07 06:14 -2.59291 104.74212 36832 ft 447 kts 140°
2026-05-07 06:15 -2.64123 104.78134 36819 ft 447 kts 140°
2026-05-07 06:15 -2.68962 104.82054 36812 ft 448 kts 140°
2026-05-07 06:16 -2.73805 104.85977 36816 ft 448 kts 140°
2026-05-07 06:16 -2.78641 104.89907 36808 ft 448 kts 140°
2026-05-07 06:17 -2.83477 104.93833 36805 ft 448 kts 140°
2026-05-07 06:17 -2.88319 104.97757 36810 ft 448 kts 140°
2026-05-07 06:18 -2.93064 105.01614 36807 ft 448 kts 140°
2026-05-07 06:18 -2.97878 105.05525 36805 ft 449 kts 140°
2026-05-07 06:19 -3.02726 105.09460 36808 ft 449 kts 140°
2026-05-07 06:19 -3.07604 105.13426 36815 ft 449 kts 140°
2026-05-07 06:20 -3.12424 105.17342 36812 ft 450 kts 140°
2026-05-07 06:20 -3.17285 105.21288 36814 ft 450 kts 140°
2026-05-07 06:21 -3.22149 105.25235 36816 ft 450 kts 140°
2026-05-07 06:21 -3.27009 105.29182 36820 ft 450 kts 140°
2026-05-07 06:22 -3.31824 105.33184 36812 ft 450 kts 139°
2026-05-07 06:22 -3.39016 105.39235 36810 ft 450 kts 139°
2026-05-07 06:23 -3.43823 105.43259 36808 ft 451 kts 140°
2026-05-07 06:23 -3.48640 105.47277 36810 ft 451 kts 140°
2026-05-07 06:24 -3.53460 105.51296 36810 ft 451 kts 139°
2026-05-07 06:24 -3.58278 105.55326 36813 ft 451 kts 139°
2026-05-07 06:25 -3.63100 105.59358 36817 ft 452 kts 139°
2026-05-07 06:25 -3.67931 105.63389 36821 ft 452 kts 140°
2026-05-07 06:26 -3.72762 105.67422 36815 ft 452 kts 139°
2026-05-07 06:26 -3.77599 105.71457 36818 ft 453 kts 140°
2026-05-07 06:27 -3.82440 105.75490 36819 ft 453 kts 140°
2026-05-07 06:27 -3.87281 105.79529 36818 ft 453 kts 139°
2026-05-07 06:28 -3.92117 105.83581 36820 ft 453 kts 139°
2026-05-07 06:28 -3.96953 105.87639 36828 ft 454 kts 139°
2026-05-07 06:29 -4.01802 105.91692 36832 ft 454 kts 139°
2026-05-07 06:29 -4.06655 105.95745 36832 ft 454 kts 139°
2026-05-07 06:30 -4.11469 105.99776 36836 ft 454 kts 139°
2026-05-07 06:30 -4.16319 106.03834 36839 ft 454 kts 139°
2026-05-07 06:31 -4.21115 106.07830 36840 ft 454 kts 139°
2026-05-07 06:31 -4.25969 106.11887 36841 ft 455 kts 139°
2026-05-07 06:32 -4.30821 106.15948 36848 ft 454 kts 139°
2026-05-07 06:32 -4.35667 106.20013 36848 ft 454 kts 139°
2026-05-07 06:33 -4.40514 106.24075 36849 ft 454 kts 139°
2026-05-07 06:33 -4.45365 106.28130 36851 ft 454 kts 140°
2026-05-07 06:34 -4.50212 106.32182 36849 ft 453 kts 140°
2026-05-07 06:34 -4.55055 106.36233 36849 ft 453 kts 140°
2026-05-07 06:35 -4.59891 106.40288 36851 ft 453 kts 139°
2026-05-07 06:35 -4.64696 106.44327 36851 ft 454 kts 140°
2026-05-07 06:36 -4.69551 106.48401 36641 ft 462 kts 140°
2026-05-07 06:36 -4.72040 106.50485 36383 ft 469 kts 140°
2026-05-07 06:36 -4.74553 106.52590 35937 ft 471 kts 140°
2026-05-07 06:37 -4.77066 106.54695 35488 ft 470 kts 140°
2026-05-07 06:37 -4.79568 106.56791 35038 ft 467 kts 140°
2026-05-07 06:37 -4.82056 106.58876 34494 ft 465 kts 140°
2026-05-07 06:37 -4.84535 106.60942 33867 ft 462 kts 141°
2026-05-07 06:38 -4.86299 106.62200 33443 ft 461 kts 148°
2026-05-07 06:38 -4.89090 106.63679 32827 ft 459 kts 155°
2026-05-07 06:38 -4.91981 106.64991 32236 ft 455 kts 155°
2026-05-07 06:38 -4.94891 106.66313 31668 ft 451 kts 155°
2026-05-07 06:39 -4.97732 106.67606 31108 ft 447 kts 154°
2026-05-07 06:39 -5.00520 106.68878 30508 ft 443 kts 154°
2026-05-07 06:39 -5.03321 106.70157 29912 ft 440 kts 154°
2026-05-07 06:39 -5.06100 106.71429 29308 ft 438 kts 154°
2026-05-07 06:40 -5.08865 106.72695 28707 ft 436 kts 154°
2026-05-07 06:40 -5.11615 106.73955 28107 ft 433 kts 154°
2026-05-07 06:40 -5.14358 106.75209 27504 ft 431 kts 154°
2026-05-07 06:40 -5.17077 106.76451 26908 ft 429 kts 154°
2026-05-07 06:41 -5.19788 106.77687 26303 ft 427 kts 154°
2026-05-07 06:41 -5.22488 106.78914 25702 ft 425 kts 154°
2026-05-07 06:41 -5.25175 106.80131 25100 ft 423 kts 154°
2026-05-07 06:41 -5.27850 106.81340 24506 ft 421 kts 154°
2026-05-07 06:42 -5.30514 106.82541 23899 ft 419 kts 154°
2026-05-07 06:42 -5.33161 106.83733 23346 ft 415 kts 154°
2026-05-07 06:42 -5.35786 106.84920 22793 ft 412 kts 154°
2026-05-07 06:42 -5.38391 106.86104 22244 ft 410 kts 154°
2026-05-07 06:43 -5.40982 106.87280 21688 ft 408 kts 154°
2026-05-07 06:43 -5.43565 106.88434 21142 ft 405 kts 158°
2026-05-07 06:43 -5.46283 106.89143 20603 ft 401 kts 172°
2026-05-07 06:43 -5.49020 106.89156 20094 ft 388 kts 186°
2026-05-07 06:44 -5.51596 106.88530 19596 ft 376 kts 199°
2026-05-07 06:44 -5.54016 106.87590 19095 ft 370 kts 200°
2026-05-07 06:44 -5.56416 106.86657 18598 ft 370 kts 200°
2026-05-07 06:44 -5.58816 106.85730 18100 ft 369 kts 199°
2026-05-07 06:45 -5.61215 106.84807 17600 ft 369 kts 199°
2026-05-07 06:45 -5.63609 106.83890 17100 ft 369 kts 199°
2026-05-07 06:45 -5.66004 106.82973 16588 ft 368 kts 199°
2026-05-07 06:45 -5.68394 106.82054 16099 ft 368 kts 200°
2026-05-07 06:46 -5.70781 106.81134 15599 ft 367 kts 200°
2026-05-07 06:46 -5.73167 106.80215 15093 ft 367 kts 200°
2026-05-07 06:46 -5.75546 106.79297 14595 ft 366 kts 200°
2026-05-07 06:46 -5.77913 106.78382 14079 ft 363 kts 200°
2026-05-07 06:47 -5.80229 106.77489 13588 ft 350 kts 200°
2026-05-07 06:47 -5.82468 106.76625 13085 ft 339 kts 200°
2026-05-07 06:47 -5.84582 106.75625 12638 ft 334 kts 212°
2026-05-07 06:47 -5.86372 106.74139 12198 ft 336 kts 227°
2026-05-07 06:48 -5.87729 106.72235 11744 ft 336 kts 242°
2026-05-07 06:48 -5.88649 106.70081 11295 ft 336 kts 248°
2026-05-07 06:48 -5.89513 106.67904 10854 ft 335 kts 248°
2026-05-07 06:48 -5.90378 106.65734 10397 ft 335 kts 248°
2026-05-07 06:49 -5.91244 106.63565 9937 ft 333 kts 248°
2026-05-07 06:49 -5.92095 106.61442 9487 ft 322 kts 247°
2026-05-07 06:49 -5.92913 106.59399 9102 ft 309 kts 247°
2026-05-07 06:49 -5.93700 106.57435 8730 ft 297 kts 247°
2026-05-07 06:50 -5.94479 106.55515 8360 ft 297 kts 247°
2026-05-07 06:50 -5.95259 106.53604 7985 ft 295 kts 246°
2026-05-07 06:50 -5.96037 106.51704 7607 ft 294 kts 246°
2026-05-07 06:50 -5.96812 106.49813 7234 ft 292 kts 246°
2026-05-07 06:51 -5.97573 106.47948 7113 ft 285 kts 246°
2026-05-07 06:51 -5.98322 106.46105 7128 ft 285 kts 246°
2026-05-07 06:51 -5.99069 106.44266 7145 ft 284 kts 246°
2026-05-07 06:51 -5.99819 106.42428 7176 ft 284 kts 246°
2026-05-07 06:52 -6.00568 106.40591 7194 ft 284 kts 246°
2026-05-07 06:52 -6.01317 106.38753 7213 ft 284 kts 246°
2026-05-07 06:52 -6.02067 106.36915 7230 ft 285 kts 246°
2026-05-07 06:52 -6.02796 106.35124 7245 ft 269 kts 246°
2026-05-07 06:53 -6.03562 106.33460 7265 ft 259 kts 233°
2026-05-07 06:53 -6.04855 106.32251 7287 ft 254 kts 205°
2026-05-07 06:53 -6.06525 106.31769 7141 ft 250 kts 178°
2026-05-07 06:53 -6.08227 106.31986 6748 ft 247 kts 167°
2026-05-07 06:54 -6.09927 106.32301 6325 ft 250 kts 167°
2026-05-07 06:54 -6.11615 106.32609 5937 ft 250 kts 167°
2026-05-07 06:54 -6.13335 106.32916 5563 ft 251 kts 167°
2026-05-07 06:54 -6.15055 106.33221 5187 ft 251 kts 167°
2026-05-07 06:55 -6.16763 106.33525 4846 ft 248 kts 167°
2026-05-07 06:55 -6.18452 106.33825 4519 ft 245 kts 167°
2026-05-07 06:55 -6.20057 106.34313 4251 ft 236 kts 147°
2026-05-07 06:55 -6.21228 106.35362 4209 ft 219 kts 122°
2026-05-07 06:56 -6.22009 106.36608 4228 ft 204 kts 120°
2026-05-07 06:56 -6.22756 106.37807 4251 ft 201 kts 120°
2026-05-07 06:56 -6.23456 106.39019 4260 ft 200 kts 109°
2026-05-07 06:56 -6.23670 106.40378 4271 ft 198 kts 84°
2026-05-07 06:57 -6.23288 106.41705 4265 ft 199 kts 69°
2026-05-07 06:57 -6.22771 106.42989 4263 ft 198 kts 69°
2026-05-07 06:57 -6.22253 106.44277 4161 ft 198 kts 69°
2026-05-07 06:57 -6.21753 106.45529 3928 ft 190 kts 69°
2026-05-07 06:58 -6.21272 106.46742 3687 ft 185 kts 69°
2026-05-07 06:58 -6.20803 106.47925 3445 ft 180 kts 70°
2026-05-07 06:58 -6.20347 106.49078 3217 ft 176 kts 69°
2026-05-07 06:58 -6.19899 106.50199 2984 ft 169 kts 69°
2026-05-07 06:59 -6.19468 106.51279 2760 ft 162 kts 69°
2026-05-07 06:59 -6.19065 106.52289 2553 ft 151 kts 69°
2026-05-07 06:59 -6.18687 106.53235 2373 ft 142 kts 69°
2026-05-07 06:59 -6.18328 106.54143 2182 ft 139 kts 67°
2026-05-07 07:00 -6.17969 106.55038 2001 ft 138 kts 68°
2026-05-07 07:00 -6.17617 106.55926 1818 ft 136 kts 68°
2026-05-07 07:00 -6.17268 106.56801 1638 ft 134 kts 67°
2026-05-07 07:00 -6.16919 106.57677 1458 ft 135 kts 67°
2026-05-07 07:01 -6.16569 106.58553 1284 ft 135 kts 66°
2026-05-07 07:01 -6.16221 106.59428 1101 ft 135 kts 66°
2026-05-07 07:01 -6.15872 106.60307 925 ft 135 kts 66°
2026-05-07 07:01 -6.15526 106.61176 730 ft 133 kts 66°
2026-05-07 07:02 -6.15181 106.62046 566 ft 135 kts 67°
2026-05-07 07:02 -6.14829 106.62925 382 ft 136 kts 65°
2026-05-07 07:02 -6.14474 106.63803 204 ft 136 kts 67°
2026-05-07 07:02 -6.14126 106.64687 59 ft 135 kts 67°
2026-05-07 07:03 -6.13810 106.65472 40 ft 101 kts 69°
2026-05-07 07:03 -6.13615 106.65960 39 ft 45 kts 68°
2026-05-07 07:03 -6.13518 106.66175 41 ft 23 kts 53°
2026-05-07 07:03 -6.13416 106.66271 40 ft 11 kts 38°
2026-05-07 07:04 -6.13361 106.66309 38 ft 10 kts 22°
2026-05-07 07:04 -6.13307 106.66283 39 ft 9 kts 297°
2026-05-07 07:04 -6.13315 106.66228 39 ft 8 kts 248°
2026-05-07 07:04 -6.13334 106.66182 39 ft 7 kts 248°
2026-05-07 07:05 -6.13351 106.66139 39 ft 9 kts 248°
2026-05-07 07:05 -6.13379 106.66069 39 ft 11 kts 248°
2026-05-07 07:05 -6.13406 106.66001 38 ft 11 kts 248°
2026-05-07 07:05 -6.13440 106.65916 38 ft 15 kts 248°
2026-05-07 07:06 -6.13472 106.65835 36 ft 11 kts 248°
2026-05-07 07:06 -6.13499 106.65770 38 ft 9 kts 248°
2026-05-07 07:06 -6.13519 106.65718 38 ft 7 kts 248°
2026-05-07 07:06 -6.13519 106.65673 36 ft 7 kts 295°
2026-05-07 07:07 -6.13472 106.65645 38 ft 8 kts 337°
2026-05-07 07:07 -6.13422 106.65624 38 ft 9 kts 337°
2026-05-07 07:07 -6.13369 106.65579 38 ft 10 kts 309°
2026-05-07 07:07 -6.13330 106.65531 38 ft 8 kts 310°
2026-05-07 07:08 -6.13297 106.65491 38 ft 7 kts 310°
2026-05-07 07:08 -6.13274 106.65440 38 ft 10 kts 282°
2026-05-07 07:08 -6.13273 106.65380 38 ft 8 kts 288°
2026-05-07 07:08 -6.13245 106.65350 38 ft 3 kts 320°
2026-05-07 07:09 -6.13234 106.65341 36 ft 1 kts 321°
2026-05-07 07:09 -6.13231 106.65339 38 ft 0 kts 321°
2026-05-07 07:09 -6.13229 106.65337 38 ft 1 kts 321°
2026-05-07 07:09 -6.13226 106.65335 38 ft 0 kts 321°